CZ-6A DEB, 61418

Orbit data source: Space-Track

CZ-6A DEB, 61418 is space debris in LEO originally from a launch on Tue, 06 Aug 2024 UTC launched from the Taiyaun Space Center, China (TSC). Debris objects in space refer to the collection of defunct objects orbiting the Earth. Examples of debris include non-operational satellites, rocket bodies, and fragments generated from explosions, collisions, or faulty payload assembly.

Loading next visibility...
Identifier
61418, 2024-140YK
Orbit
LEO
Country
Flag of CNCN / PRC
Related business
Manufacturer
SAST
Mission
Spacecraft
Bus & Motor
Unknown
Mass
Unknown
Launch date (UTC)
2024-08-06 (1 year ago)
Launch vehicle
Unknown
Launch site
Taiyaun Space Center, China (TSC)
Object type
Payload
Rocket body
Debris
Shape & HBR
Unknown shape, 0.1 m
Radar Cross Section
Small (<0.1 m²)

Expand to show TLE details & history
Last TLE update: 14 hours ago

TLE from 14 hours ago
0 CZ-6A DEB
1 61418U 24140YK  25342.90303734  .00002732  00000-0  10884-2 0  9993
2 61418  88.9835 294.5440 0048441 354.2700   5.7933 14.27719679 68579
Epoch: 2025-12-08T21:40Z
TLE epoch observation values (Epoch: 2025-12-08T21:40:22.426Z)
Latitude
-0.00006°
Longitude
-108.44484°
Altitude
767.831 km
Speed
7.488 km/s
True Right ascension
19h 38m 10s
True Declination
0° 00' 00"
Sunlit
Object was in daylight at epoch
Visualization orbit readout
Latitude
Unknown
Longitude
Unknown
Altitude
Unknown
Speed
Unknown
Apparent Right ascension
Unknown
Apparent Declination
Unknown
Sunlit
N/A
Visualization observer readout
Local Sidereal Time
10:14:39
Azimuth
Unknown
Elevation
Unknown
Doppler factor
Unknown
Orbital elements
Apogee altitude
831.057 km
Perigee altitude
761.55 km
Semi-major axis
7,174.44 km
Eccentricity
0.00484
Inclination
88.9835°
RAAN
294.544°
Arg. of periapsis
354.27°
True anomaly
5.84967°
Mean anomaly
5.7933°
Eccentric anomaly
5.82145°
Mean motion
3.57159 °/min
Orbital period
100.8 mins
BSTAR
0.0010884
Loading maneuver chart data...
Computing Atmospheric mass density...
Loading historical data...
Loading historical data...
Loading historical data...
Loading historical data...
Loading historical data...
Loading historical data...
Loading historical data...

Documentation

Showing up to 5 results
|